Lapse_Rate
8.4 8.7 8.8 8.9 8.7 8.7 8.9 9.0 9.2 9.3 9.5 9.3 9.2 9.2 9.0 8.6 7.6 7.3 7.5 7.2 7.0 7.0 6.9 7.2 7.6 7.5 7.8 8.7 8.0 8.1 7.9 8.0 9.1 8.7 9.1 9.0 7.8 8.7 8.4 8.0 7.9 7.9 8.7
8.2 8.4 8.7 8.8 8.9 8.8 8.3 8.1 8.7 9.2 9.4 9.3 9.2 9.2 8.9 8.3 6.9 6.6 6.8 6.8 6.5 6.4 6.8 6.3 6.6 6.6 6.6 7.1 7.1 7.9 8.0 8.6 8.9 8.6 8.4 7.8 8.5 8.9 7.0 7.3 8.5 9.0 8.8
7.9 8.2 8.5 8.6 8.7 7.8 6.7 6.4 6.8 6.9 6.8 7.0 7.2 7.4 7.7 8.6 8.3 7.8 6.8 6.4 6.2 5.6 5.7 5.7 5.9 6.2 6.6 7.3 7.2 7.9 7.6 8.3 8.4 9.0 8.6 7.7 7.4 8.3 8.9 9.0 8.8 8.5 8.2
8.1 8.3 8.3 8.4 8.2 6.9 6.6 6.4 6.6 7.0 8.0 8.7 8.4 8.7 7.9 6.5 6.8 7.0 6.8 6.8 5.9 5.4 5.2 5.4 5.6 6.3 6.8 7.0 6.8 8.0 7.7 8.8 8.6 8.6 9.1 8.5 8.8 7.9 7.7 8.7 8.7 9.3 8.7
8.0 8.1 8.3 8.4 8.1 6.8 6.3 6.1 6.1 6.4 7.0 7.1 7.0 6.6 6.4 6.5 7.0 7.5 7.4 7.1 6.9 5.9 4.8 5.6 6.0 6.4 6.5 6.5 6.4 6.8 7.1 7.9 8.5 8.0 8.5 8.8 8.9 9.0 8.1 7.6 8.2 9.1 9.4
8.1 8.3 8.5 8.4 7.0 6.4 6.4 6.2 6.0 5.8 6.0 6.0 6.3 6.2 6.3 7.0 6.9 6.4 6.7 6.9 7.3 6.5 5.3 5.8 6.4 6.9 6.5 6.3 6.6 6.8 6.6 6.5 7.3 7.7 7.9 8.8 8.6 8.5 8.4 8.1 8.1 8.3 9.1
8.0 8.1 8.2 8.3 8.3 7.9 6.8 7.0 6.4 5.9 6.1 5.9 5.9 5.8 5.8 6.0 5.7 6.0 6.2 6.0 6.1 5.8 5.2 5.7 6.3 6.8 6.6 6.7 6.8 6.3 6.3 6.7 7.6 7.5 8.8 9.0 9.1 9.2 9.1 8.7 8.4 8.3 9.0
8.0 8.1 8.3 8.4 8.5 8.3 8.2 7.3 6.3 5.7 5.9 5.8 5.7 5.8 6.0 5.9 6.0 5.8 5.6 5.6 5.5 5.7 5.7 6.0 6.5 6.8 6.9 7.1 7.5 7.0 7.8 8.6 8.7 8.9 9.0 9.1 9.4 9.4 9.3 9.0 8.5 8.0 8.3
7.9 8.1 8.3 8.5 8.6 8.7 8.6 7.0 6.0 5.6 5.7 5.8 6.2 6.3 6.3 6.0 5.8 5.9 5.8 5.4 6.0 6.4 6.6 6.6 6.8 7.2 7.5 8.0 8.0 8.0 8.7 9.2 9.1 9.2 9.1 9.2 9.4 9.5 9.5 9.3 9.2 8.3 7.5
7.9 8.1 8.3 8.5 8.7 8.8 8.2 7.2 6.7 6.0 5.8 6.1 6.4 6.4 6.2 6.1 6.2 6.1 5.9 6.1 6.8 6.9 6.7 7.0 7.1 7.2 7.5 7.9 8.0 8.3 8.9 9.3 9.4 9.5 9.4 9.4 9.5 9.4 9.6 9.2 9.3 9.1 8.6
7.9 8.1 8.4 8.6 8.7 8.6 7.3 7.2 6.4 6.1 6.2 6.6 6.6 6.3 6.1 6.2 6.5 6.5 6.5 6.6 7.1 7.2 7.3 7.0 6.9 7.1 7.2 7.7 8.3 8.8 9.3 9.4 9.4 9.5 9.5 9.3 9.5 9.3 9.5 9.3 9.4 9.1 9.0
8.0 8.2 8.3 8.5 8.6 8.5 8.4 8.2 7.4 7.1 6.7 6.6 6.5 6.1 6.2 6.5 6.9 6.9 6.7 7.1 7.1 7.2 7.1 7.0 7.0 7.2 7.7 8.3 8.8 9.1 9.5 9.4 9.4 9.5 9.4 9.4 10.0 9.3 9.5 9.5 9.3 9.1 9.2
7.9 8.2 8.3 8.4 8.5 8.6 8.7 8.5 8.1 7.2 6.6 6.6 6.7 6.6 6.4 6.6 6.8 6.8 6.9 7.1 6.8 6.8 7.0 7.1 7.2 7.6 8.1 8.9 9.3 9.5 9.4 9.5 9.6 9.6 9.5 9.4 9.4 9.3 9.3 9.3 9.1 9.3 9.6
7.8 8.0 8.2 8.3 8.5 8.6 8.7 8.8 8.6 7.1 6.4 6.4 6.4 6.2 6.0 6.2 6.5 6.8 6.7 6.8 6.9 6.7 6.9 7.3 7.6 8.3 9.3 9.5 9.6 9.2 9.0 9.4 9.7 9.7 9.6 9.7 9.5 9.3 9.2 9.4 9.2 9.4 8.8
7.7 7.9 8.0 8.3 8.5 8.6 8.8 8.9 8.4 6.9 6.6 6.4 6.1 5.7 5.8 6.3 6.7 6.7 6.6 6.8 6.8 7.1 7.6 8.0 8.8 9.4 9.5 9.8 9.2 9.0 9.3 9.4 9.6 9.8 9.8 9.8 9.5 9.5 9.4 9.4 9.2 8.8 8.1
7.7 7.9 8.1 8.3 8.4 8.6 8.7 8.7 7.4 6.4 6.6 6.2 5.9 5.6 6.1 6.3 6.5 6.5 6.5 6.6 7.0 7.7 8.5 8.9 9.4 9.4 9.6 9.5 9.6 9.6 9.5 9.7 9.7 9.5 9.7 9.8 9.7 9.6 9.6 9.5 9.5 9.3 8.9
7.7 7.9 8.1 8.3 8.4 8.6 8.8 8.5 7.5 6.6 6.5 6.2 5.9 6.0 6.3 6.3 6.4 6.4 6.6 7.4 8.2 8.6 8.9 9.3 9.4 9.4 9.3 9.6 9.6 9.6 9.6 9.6 9.6 9.6 9.5 9.7 10.2 9.4 9.2 9.4 9.4 9.4 9.4
7.8 8.0 8.3 8.4 8.6 8.9 8.9 8.4 6.8 6.5 6.1 6.0 6.6 6.5 6.2 6.2 6.4 6.7 7.7 8.2 8.7 9.0 9.1 9.2 9.3 9.4 9.8 9.6 9.6 9.6 9.7 9.7 9.7 9.7 9.6 9.5 9.3 9.2 9.1 9.4 8.1 8.2 8.7
8.2 8.3 8.6 8.6 8.6 8.0 7.7 6.9 6.4 5.8 5.9 6.4 6.8 6.5 6.2 6.1 6.6 7.1 7.5 7.9 8.6 8.6 8.9 9.2 9.3 9.5 9.6 9.6 9.6 9.6 9.6 9.7 9.6 9.8 9.7 9.4 9.5 9.4 9.4 8.6 7.4 8.7 9.1
7.2 7.1 7.6 7.2 7.7 8.0 7.2 6.8 6.2 6.1 6.5 6.4 6.0 6.0 6.2 6.6 7.0 7.1 7.4 8.2 8.5 8.7 9.1 9.4 9.7 9.5 9.5 9.6 9.6 9.6 9.6 9.3 9.4 9.5 9.4 9.4 9.4 9.4 9.1 8.6 9.2 8.4 8.7
5.1 5.5 6.3 7.7 7.9 6.9 6.8 6.4 6.0 6.3 6.0 5.6 5.6 6.0 6.7 7.0 7.2 7.3 7.9 8.0 8.7 9.2 9.4 9.4 9.6 9.5 9.6 9.6 9.6 9.6 9.5 9.4 9.2 8.5 9.2 9.6 9.4 9.1 9.2 9.5 9.2 8.9 8.7
5.0 6.4 7.4 7.1 6.8 6.4 6.3 6.0 6.5 6.0 5.5 5.4 5.8 6.3 6.7 7.3 7.3 7.6 8.2 8.9 9.2 9.2 9.2 9.2 9.2 9.7 9.7 9.6 9.6 9.6 9.5 9.5 8.8 8.7 9.3 9.4 8.6 9.2 9.5 9.3 9.4 9.4 9.2
5.8 7.1 7.4 6.6 6.1 5.8 6.4 7.0 6.1 5.4 5.5 5.9 6.5 6.8 7.0 7.1 7.7 7.9 8.8 9.1 9.2 9.2 9.1 9.2 9.2 9.3 9.7 9.9 9.6 9.6 9.5 9.4 9.2 9.5 9.3 8.3 9.4 9.5 9.4 9.5 9.4 9.3 8.8
6.2 7.4 7.6 6.7 5.6 5.5 5.5 5.7 5.2 5.2 5.6 6.3 6.7 6.8 6.8 7.2 8.0 9.2 9.3 9.3 9.2 9.1 9.1 8.9 9.1 9.2 9.3 9.5 9.6 9.6 9.2 9.3 9.2 8.6 7.7 9.4 9.4 9.4 9.3 9.3 9.3 9.0 8.9
6.7 7.0 7.7 7.1 6.8 5.9 5.4 5.4 5.4 5.7 5.8 6.1 6.3 6.8 7.6 8.2 8.9 9.1 9.3 9.2 9.4 9.3 9.0 9.2 9.2 8.8 8.9 9.2 9.3 9.2 9.3 9.0 8.8 8.9 9.2 9.2 9.1 8.8 8.9 8.9 8.9 8.8 8.7
6.2 6.8 7.3 7.5 6.0 6.0 6.1 5.8 5.6 5.3 5.2 5.5 6.5 7.7 7.9 8.9 9.1 9.1 9.1 9.4 9.5 9.5 9.6 9.6 9.4 9.5 9.4 9.4 9.4 9.4 9.3 9.1 9.3 9.2 8.9 8.7 8.6 8.6 8.7 8.7 8.6 8.4 8.3
Wind_Speed
7 7 8 9 9 10 11 11 11 11 9 8 8 8 8 8 8 8 13 12 12 12 9 7 7 7 7 8 9 8 9 8 9 8 9 8 13 10 10 9 11 14 14
11 10 10 10 11 12 12 12 12 11 9 8 8 9 9 8 8 8 9 11 12 13 9 9 8 9 7 9 9 9 7 7 8 8 10 6 9 6 13 13 11 14 12
13 13 13 12 11 12 12 12 13 13 12 12 8 8 8 6 7 6 6 8 12 13 12 10 9 9 7 6 8 8 10 8 7 9 6 6 6 12 8 11 11 12 12
14 13 13 12 12 12 11 12 13 13 10 10 10 11 8 8 6 5 6 6 10 10 12 11 9 9 7 8 7 8 8 8 7 7 8 9 11 11 11 5 11 11 12
15 15 13 13 12 11 10 11 12 12 11 11 10 8 9 7 5 4 5 6 6 8 12 11 8 8 6 8 8 8 9 7 7 7 8 9 8 10 11 14 9 10 10
16 14 13 12 11 10 10 10 12 12 12 11 11 11 10 8 6 6 5 5 5 5 8 9 8 7 7 8 7 8 9 9 8 7 8 8 9 9 10 13 14 14 11
16 15 14 12 12 11 10 10 11 12 11 11 11 10 9 8 8 6 5 6 6 6 8 8 8 7 8 8 8 8 9 8 8 9 8 9 9 9 10 11 13 14 12
15 15 14 12 12 11 10 11 11 11 10 10 9 8 8 5 5 6 6 5 5 6 8 8 9 10 10 9 9 7 7 9 8 12 10 9 9 9 9 11 11 15 14
16 16 14 12 12 11 10 10 10 10 9 8 7 7 7 7 6 6 6 5 5 6 8 8 9 10 10 10 10 7 10 10 10 10 10 10 9 9 9 9 10 11 16
17 15 13 13 11 11 10 10 9 9 8 7 6 6 6 6 5 5 6 6 6 7 8 9 9 10 11 11 11 9 10 11 9 9 12 12 10 11 10 10 10 10 12
16 15 13 12 11 10 10 9 9 8 7 6 6 6 5 5 5 5 6 6 7 7 8 9 10 11 12 12 12 12 13 12 13 13 13 14 14 10 10 10 11 11 11
16 15 14 13 12 11 10 9 8 7 6 5 5 5 4 5 5 5 6 6 7 8 8 9 11 12 12 13 13 13 12 14 14 14 14 15 11 14 13 10 13 12 13
16 15 14 12 12 11 10 9 8 7 6 4 4 4 4 5 5 6 6 7 8 9 9 10 11 12 12 13 13 13 14 15 15 15 15 15 15 14 12 13 12 13 12
16 14 14 13 12 11 10 9 8 7 5 4 4 4 4 5 5 6 6 7 8 9 10 11 12 12 13 13 13 13 14 15 15 15 15 15 14 15 14 14 15 13 13
16 15 14 13 12 11 10 9 8 6 5 4 3 3 3 4 5 6 7 8 9 10 11 12 12 12 11 10 12 13 14 15 16 16 15 14 16 23 22 12 13 15 14
15 14 13 13 12 12 10 9 8 6 5 3 2 2 3 4 5 6 8 9 10 11 11 12 12 13 10 19 21 18 14 15 16 15 14 14 19 18 25 25 30 24 17
13 13 13 11 11 11 10 9 8 6 4 3 1 2 3 5 6 8 9 10 11 11 12 12 13 13 13 21 22 22 13 15 15 16 15 14 12 18 15 24 28 25 29
10 11 10 10 10 10 9 9 7 6 4 1 1 2 4 6 7 9 10 10 11 12 12 12 13 13 12 21 22 22 14 14 15 15 16 16 16 17 20 18 18 17 16
9 9 10 11 11 11 10 8 7 5 3 0 2 3 5 7 8 10 11 11 11 11 12 12 14 14 13 20 20 18 14 14 15 14 15 17 18 25 30 20 18 20 18
10 11 12 12 11 10 9 7 6 3 1 1 2 4 5 7 9 11 11 11 11 11 10 13 13 17 13 18 20 18 11 14 12 14 15 23 23 30 31 20 19 18 18
12 12 11 10 10 9 7 6 4 2 1 1 3 5 6 8 9 10 10 11 11 11 12 13 12 13 13 13 21 23 12 11 13 12 13 12 28 31 31 33 16 19 21
12 11 10 9 8 7 5 5 3 2 0 3 5 6 8 7 8 11 10 12 11 12 12 12 10 9 11 18 20 24 25 25 14 15 13 15 29 31 32 23 30 31 26
9 9 9 10 7 6 4 4 4 1 3 4 6 7 8 9 9 11 11 10 10 10 10 9 10 10 9 10 21 25 28 27 17 13 23 27 31 29 20 26 29 26 11
9 8 9 9 7 6 4 3 2 1 3 5 7 7 8 10 11 7 8 8 8 9 9 10 10 11 11 10 10 12 13 21 17 20 13 22 23 23 22 17 15 11 11
8 8 8 7 7 6 4 2 1 2 4 6 7 8 7 10 10 9 8 8 9 9 9 10 10 11 12 12 23 22 15 14 19 22 12 11 11 12 12 11 12 11 11
8 7 6 6 6 4 3 3 2 2 5 6 6 7 7 8 8 8 9 13 16 18 19 20 16 11 20 27 29 30 31 30 30 13 11 11 11 12 13 13 13 12 16
Wind_Direction
139 122 112 105 97 88 86 88 101 116 121 122 115 106 103 96 84 71 63 54 44 40 32 22 14 5 358 356 350 341 337 329 330 321 314 306 283 303 315 348 326 316 305
159 135 122 111 97 92 90 88 84 87 88 93 91 96 96 90 90 79 64 57 47 36 33 20 11 7 353 355 351 347 338 328 336 322 316 322 302 330 338 325 309 309 304
160 144 132 115 104 93 90 89 88 92 95 103 105 104 107 101 86 73 69 47 48 36 28 21 9 3 354 353 350 345 340 327 328 341 325 321 321 317 305 310 290 329 313
158 145 135 122 109 100 95 95 92 93 92 90 88 88 93 92 79 72 59 56 42 39 23 15 8 0 353 355 345 348 337 334 324 327 325 312 307 308 308 292 314 294 323
157 149 138 126 111 107 101 97 94 89 84 86 94 98 100 95 81 74 56 48 44 35 21 7 6 2 1 352 343 340 336 330 330 327 318 308 303 304 309 307 307 296 296
157 146 136 129 118 116 110 106 102 94 88 86 85 86 85 78 74 55 42 28 28 21 26 2 2 360 356 346 339 335 332 326 318 316 313 312 311 310 307 300 303 298 297
158 152 152 141 136 129 121 115 106 97 91 87 84 81 78 72 66 46 33 22 12 11 9 358 354 353 346 339 335 338 315 319 313 305 306 304 302 302 298 297 298 298 301
162 165 156 147 139 137 130 122 113 105 96 90 84 75 65 60 52 40 27 23 9 0 355 352 348 344 339 333 330 319 317 301 311 302 306 300 301 300 299 297 306 303 303
168 167 156 152 145 142 133 125 118 109 101 93 84 73 66 58 45 34 28 12 3 350 350 345 339 333 329 327 324 317 309 313 307 308 303 301 300 297 300 297 298 303 303
168 163 161 155 148 140 132 129 122 113 104 95 83 74 62 52 36 32 16 3 353 350 342 337 333 327 326 325 324 315 313 309 309 305 306 303 301 304 297 298 296 293 291
170 165 166 155 147 145 144 134 126 122 113 98 87 73 57 41 32 19 4 358 341 343 334 332 327 325 326 322 318 314 309 312 308 304 303 304 304 301 302 305 296 294 290
171 169 164 158 159 156 148 145 136 128 111 99 89 72 52 28 16 5 356 343 339 334 332 328 323 320 316 316 313 311 309 312 307 307 306 303 307 302 303 298 297 298 301
172 169 165 169 168 161 157 151 142 132 122 111 93 70 42 16 1 355 344 337 334 329 326 322 316 313 312 311 310 305 317 310 308 307 308 305 304 304 302 303 307 299 297
172 171 172 176 169 165 161 153 144 138 126 107 80 54 24 1 345 335 332 332 328 321 319 314 312 308 309 311 306 322 313 310 307 307 304 300 303 302 311 299 296 300 306
179 179 178 176 170 167 161 155 145 142 125 107 83 44 353 336 330 331 329 325 321 317 313 311 305 306 308 306 325 313 313 310 309 304 300 302 302 302 298 302 306 310 296
181 180 181 176 173 168 165 153 150 137 133 117 83 5 329 328 327 330 325 323 319 312 308 305 306 307 307 315 314 318 311 309 306 300 305 305 304 304 309 312 306 300 304
180 180 180 179 166 164 160 163 147 139 125 104 43 330 331 330 332 328 322 314 311 309 307 308 310 311 313 312 317 317 313 303 301 307 310 306 310 315 315 301 302 305 308
165 167 165 158 151 149 154 134 136 127 121 125 313 324 333 332 330 321 313 313 314 312 312 311 314 310 308 314 318 315 305 306 305 308 309 311 316 310 304 309 313 307 308
126 137 138 141 140 146 141 138 131 123 140 111 315 333 336 327 317 314 316 314 314 312 312 312 310 308 310 314 313 317 309 307 307 309 315 310 305 305 316 317 313 309 308
113 124 128 133 142 138 142 140 130 138 162 348 330 331 326 313 310 313 313 314 312 310 311 306 306 308 310 310 316 316 309 306 308 311 307 307 311 315 320 316 314 312 310
117 122 131 136 130 137 135 132 138 145 117 317 340 323 311 310 311 309 312 313 312 307 306 307 311 312 309 311 319 315 312 310 314 313 311 311 311 318 316 318 320 308 312
125 130 127 127 133 133 134 133 151 138 11 349 318 310 310 314 311 315 313 314 310 308 310 312 311 309 314 321 316 318 319 318 317 312 311 309 318 319 321 323 316 319 322
132 138 136 134 129 135 148 157 109 43 342 309 306 310 314 316 319 316 311 310 311 310 314 315 314 317 323 315 317 322 319 322 317 316 312 321 318 323 325 321 320 323 314
145 147 146 148 146 146 139 102 96 306 299 304 312 319 319 318 311 309 306 307 312 313 312 314 314 315 316 317 320 316 318 319 321 316 313 318 323 324 319 319 316 314 312
148 156 155 156 149 141 131 122 239 294 300 316 321 319 315 313 308 308 309 307 302 307 305 304 308 313 314 315 316 321 324 321 319 325 321 323 325 319 318 317 316 315 314
151 155 147 143 137 151 158 183 226 292 321 322 318 314 310 308 309 310 308 305 307 309 308 305 301 303 306 311 319 324 324 323 326 328 326 321 320 319 319 318 317 317 319